Overview Statistics Trail Chart Weather Telemetry Raw packets
 

This is the latest recevied weather packets stored in our database for station/object ED4YAF-13. If no packets are shown the sender has not sent any weather packets the latest 10 day(s).

<< 14 15 16 17 18 19 20 >>
Time Temp. Humidity Pressure Rain* Wind** Luminosity Snow
1788242294 13.33° C 74% 1019.5 hPa - - - -
1788241372 12.78° C 74% 1019.7 hPa - - - -
1788240484 12.78° C 72% 1019.8 hPa - - - -
1788239581 12.78° C 68% 1019.7 hPa - - - -
1788238672 13.33° C 65% 1019.6 hPa - - - -
1788237780 13.33° C 62% 1019.4 hPa - - - -
1788236938 13.33° C 59% 1019.3 hPa - - - -
1788236871 13.33° C 59% 1019.3 hPa - - - -
1788236309 13.89° C 55% 1019.1 hPa - - - -
1788235971 13.89° C 55% 1019.1 hPa - - - -
1788235061 13.89° C 52% 1019 hPa - - - -
1788234140 13.89° C 52% 1019 hPa - - - -
1788233240 13.89° C 52% 1018.9 hPa - - - -
1788231429 14.44° C 53% 1019.1 hPa - - - -
1788230527 13.89° C 60% 1019.2 hPa - - - -
1788229635 14.44° C 60% 1019.1 hPa - - - -
1788228715 14.44° C 67% 1019.2 hPa - - - -
1788227815 15° C 69% 1019 hPa - - - -
1788226915 15° C 70% 1019 hPa - - - -
1788226015 15° C 72% 1019.3 hPa - - - -
1788225115 14.44° C 74% 1019.5 hPa - - - -
1788224271 14.44° C 76% 1019.4 hPa - - - -
1788224215 14.44° C 76% 1019.4 hPa - - - -
1788223310 15° C 75% 1019.6 hPa - - - -
1788222410 15° C 73% 1019.7 hPa - - - -

* Rain since midnight (hover to see other rain measurements)
** Current wind speed in m/s (hover to see current wind gust speed)